GW2632 Weather Reports


Display with metric or nautical units.
time (UTC)temp
F
wind
direction
speed
MPH
gust
MPH
rain 1hr
in
rain 24hr
in
rain mn
in
humidity
%
barometer
mb
20260509002312 84 111 2.0 10.0 0.00 0.00 0.00 67 1011.5
20260509001810 85 132 4.0 8.0 0.00 0.00 0.00 67 1011.4
20260509001305 85 128 6.0 9.0 0.00 0.00 0.00 67 1011.7
20260509000803 85 117 2.0 4.0 0.00 0.00 0.00 67 1011.8
20260509000303 86 106 3.0 4.0 0.00 0.00 0.00 66 1011.8
20260508235757 86 131 1.0 2.0 0.00 0.00 0.00 66 1012.0
20260508235254 86 354 0.0 3.0 0.00 0.00 0.00 66 1011.6
20260508234751 87 116 4.0 7.0 0.00 0.00 0.00 65 1011.6
20260508234247 87 357 1.0 2.0 0.00 0.00 0.00 65 1011.6
20260508233746 87 301 2.0 7.0 0.00 0.00 0.00 65 1011.6
20260508233245 87 130 5.0 7.0 0.00 0.00 0.00 64 1011.1
20260508232742 87 124 5.0 6.0 0.00 0.00 0.00 64 1011.3
20260508232238 87 341 3.0 6.0 0.00 0.00 0.00 64 1011.0
20260508231736 88 116 7.0 9.0 0.00 0.00 0.00 63 1011.1
20260508231232 88 152 5.0 7.0 0.00 0.00 0.00 63 1010.7
20260508230729 89 68 3.0 10.0 0.00 0.00 0.00 62 1010.8
20260508230225 89 146 7.0 9.0 0.00 0.00 0.00 61 1010.6
20260508225724 90 74 5.0 8.0 0.00 0.00 0.00 61 1010.7
20260508225220 90 209 5.0 7.0 0.00 0.00 0.00 59 1010.5
20260508224718 90 153 1.0 4.0 0.00 0.00 0.00 56 1010.6
20260508224215 91 66 3.0 3.0 0.00 0.00 0.00 48 1010.4
20260508223712 91 25 2.0 2.0 0.00 0.00 0.00 49 1010.4
20260508223210 91 343 0.0 1.0 0.00 0.00 0.00 49 1010.7
20260508222707 91 346 1.0 1.0 0.00 0.00 0.00 50 1010.6
20260508222204 91 143 2.0 3.0 0.00 0.00 0.00 49 1010.6
20260508221700 91 57 1.0 3.0 0.00 0.00 0.00 50 1010.4
20260508221156 91 210 4.0 6.0 0.00 0.00 0.00 48 1010.7
20260508220653 91 341 1.0 3.0 0.00 0.00 0.00 49 1010.4
20260508220149 91 139 4.0 4.0 0.00 0.00 0.00 48 1010.4
20260508215646 92 235 2.0 4.0 0.00 0.00 0.00 48 1010.5
20260508215142 92 302 3.0 3.0 0.00 0.00 0.00 48 1010.7
20260508214640 93 319 1.0 4.0 0.00 0.00 0.00 46 1010.6
20260508214137 93 263 4.0 7.0 0.00 0.00 0.00 46 1010.5
20260508213633 93 335 2.0 7.0 0.00 0.00 0.00 47 1010.5
20260508213129 93 72 2.0 3.0 0.00 0.00 0.00 45 1010.7
20260508212626 93 344 1.0 6.0 0.00 0.00 0.00 45 1010.5
20260508212123 93 21 1.0 2.0 0.00 0.00 0.00 44 1010.4
20260508211618 93 317 2.0 3.0 0.00 0.00 0.00 44 1010.3
20260508211115 93 313 2.0 6.0 0.00 0.00 0.00 44 1010.7
20260508210611 93 66 1.0 3.0 0.00 0.00 0.00 45 1010.7
20260508210109 94 20 1.0 6.0 0.00 0.00 0.00 41 1010.7
20260508205606 94 303 2.0 3.0 0.00 0.00 0.00 42 1010.6
20260508205102 93 342 1.0 4.0 0.00 0.00 0.00 42 1010.6
20260508204558 94 295 2.0 7.0 0.00 0.00 0.00 43 1010.7
20260508204055 93 307 1.0 6.0 0.00 0.00 0.00 45 1010.7
20260508203551 93 257 4.0 7.0 0.00 0.00 0.00 45 1010.8
20260508203047 92 343 0.0 2.0 0.00 0.00 0.00 45 1011.0
20260508202543 91 346 0.0 0.0 0.00 0.00 0.00 46 1011.0
20260508202041 92 77 2.0 2.0 0.00 0.00 0.00 46 1011.1
20260508201537 92 330 2.0 3.0 0.00 0.00 0.00 48 1011.3
20260508201034 93 312 2.0 7.0 0.00 0.00 0.00 46 1011.3
20260508200531 93 276 3.0 6.0 0.00 0.00 0.00 45 1011.6
20260508200026 92 243 2.0 6.0 0.00 0.00 0.00 47 1011.4
20260508195524 92 294 2.0 3.0 0.00 0.00 0.00 47 1011.4
20260508195020 93 309 2.0 4.0 0.00 0.00 0.00 46 1011.7
20260508194517 94 229 3.0 3.0 0.00 0.00 0.00 44 1011.6
20260508194014 93 330 0.0 4.0 0.00 0.00 0.00 46 1011.8
20260508193510 93 356 1.0 6.0 0.00 0.00 0.00 47 1011.9
20260508193007 93 348 1.0 4.0 0.00 0.00 0.00 46 1011.7
20260508192504 94 7 1.0 3.0 0.00 0.00 0.00 47 1011.8
20260508192001 93 311 1.0 4.0 0.00 0.00 0.00 47 1012.0
20260508191458 92 319 2.0 3.0 0.00 0.00 0.00 47 1012.2
20260508190954 93 311 1.0 6.0 0.00 0.00 0.00 47 1012.3
20260508190452 91 291 1.0 4.0 0.00 0.00 0.00 50 1012.4
20260508185948 91 215 3.0 4.0 0.00 0.00 0.00 50 1012.6
20260508185446 91 48 3.0 6.0 0.00 0.00 0.00 51 1012.8
20260508184943 93 111 3.0 4.0 0.00 0.00 0.00 48 1012.7
20260508184440 92 342 0.0 2.0 0.00 0.00 0.00 49 1013.0
20260508183937 93 297 3.0 4.0 0.00 0.00 0.00 49 1012.8
20260508183433 92 53 2.0 2.0 0.00 0.00 0.00 47 1013.0
20260508182928 92 291 4.0 6.0 0.00 0.00 0.00 48 1013.2
20260508182426 92 261 2.0 6.0 0.00 0.00 0.00 48 1013.3
20260508181926 92 256 6.0 7.0 0.00 0.00 0.00 47 1013.3
20260508181423 91 333 2.0 7.0 0.00 0.00 0.00 52 1013.4
20260508180921 91 280 3.0 6.0 0.00 0.00 0.00 52 1013.0
20260508180417 90 331 2.0 4.0 0.00 0.00 0.00 51 1013.5
20260508175913 90 318 2.0 4.0 0.00 0.00 0.00 50 1013.6
20260508175410 90 344 0.0 3.0 0.00 0.00 0.00 51 1013.8
20260508174908 90 296 3.0 4.0 0.00 0.00 0.00 50 1013.9
20260508174405 91 269 2.0 3.0 0.00 0.00 0.00 49 1013.9
20260508173902 90 281 2.0 2.0 0.00 0.00 0.00 51 1013.6
20260508173359 91 200 1.0 3.0 0.00 0.00 0.00 52 1013.8
20260508172854 91 343 0.0 3.0 0.00 0.00 0.00 49 1014.0
20260508172352 91 326 1.0 2.0 0.00 0.00 0.00 50 1013.9
20260508171848 92 242 4.0 7.0 0.00 0.00 0.00 50 1014.0
20260508171344 91 275 3.0 3.0 0.00 0.00 0.00 49 1014.1
20260508170841 91 339 0.0 4.0 0.00 0.00 0.00 51 1014.4
20260508170340 89 312 0.0 3.0 0.00 0.00 0.00 52 1014.5
20260508165836 89 242 2.0 7.0 0.00 0.00 0.00 51 1014.4
20260508165334 91 303 4.0 7.0 0.00 0.00 0.00 50 1014.3
20260508164829 91 346 3.0 7.0 0.00 0.00 0.00 49 1014.5
20260508164326 90 20 2.0 2.0 0.00 0.00 0.00 53 1014.6
20260508163824 89 357 2.0 3.0 0.00 0.00 0.00 53 1014.8
20260508163321 88 296 3.0 3.0 0.00 0.00 0.00 55 1014.6
20260508162817 87 343 4.0 7.0 0.00 0.00 0.00 58 1015.0
20260508162314 88 341 4.0 7.0 0.00 0.00 0.00 56 1014.8
20260508161811 89 314 3.0 7.0 0.00 0.00 0.00 55 1015.0
20260508161308 88 279 3.0 8.0 0.00 0.00 0.00 57 1015.1
20260508160806 87 299 2.0 4.0 0.00 0.00 0.00 58 1015.2
20260508160304 89 266 5.0 7.0 0.00 0.00 0.00 57 1015.4
20260508155800 89 63 2.0 8.0 0.00 0.00 0.00 56 1015.4
20260508155257 88 211 5.0 6.0 0.00 0.00 0.00 57 1015.5
20260508154754 88 273 2.0 6.0 0.00 0.00 0.00 59 1015.2
20260508154252 87 303 3.0 6.0 0.00 0.00 0.00 61 1015.3
20260508153748 85 325 0.0 2.0 0.00 0.00 0.00 64 1015.6
20260508153246 85 297 2.0 4.0 0.00 0.00 0.00 63 1015.5
20260508152742 86 300 4.0 6.0 0.00 0.00 0.00 61 1015.6
20260508152238 85 260 2.0 3.0 0.00 0.00 0.00 64 1015.5
20260508151734 85 277 3.0 6.0 0.00 0.00 0.00 65 1015.7
20260508151231 86 291 4.0 4.0 0.00 0.00 0.00 64 1015.8
20260508150728 86 313 4.0 8.0 0.00 0.00 0.00 65 1015.7
20260508150225 85 288 4.0 6.0 0.00 0.00 0.00 64 1015.7
20260508145720 85 244 7.0 9.0 0.00 0.00 0.00 64 1015.8
20260508145216 84 0 1.0 6.0 0.00 0.00 0.00 67 1015.5
20260508144714 84 337 3.0 9.0 0.00 0.00 0.00 69 1015.5
20260508144212 85 285 3.0 4.0 0.00 0.00 0.00 66 1015.5
20260508143709 86 307 1.0 6.0 0.00 0.00 0.00 65 1015.8
20260508143206 83 334 1.0 3.0 0.00 0.00 0.00 69 1015.7
20260508142702 82 310 2.0 6.0 0.00 0.00 0.00 72 1015.8
20260508142159 83 281 2.0 6.0 0.00 0.00 0.00 70 1015.8
20260508141655 83 323 2.0 4.0 0.00 0.00 0.00 71 1015.3
20260508141153 83 297 5.0 8.0 0.00 0.00 0.00 70 1015.7
20260508140651 82 339 2.0 6.0 0.00 0.00 0.00 73 1015.8
20260508140147 82 347 1.0 6.0 0.00 0.00 0.00 73 1015.5
20260508135643 84 265 3.0 9.0 0.00 0.00 0.00 72 1015.6
20260508135139 83 286 2.0 6.0 0.00 0.00 0.00 73 1015.6
20260508134636 81 339 0.0 3.0 0.00 0.00 0.00 78 1015.6
20260508134133 81 317 2.0 2.0 0.00 0.00 0.00 78 1015.8
20260508133629 82 299 4.0 4.0 0.00 0.00 0.00 76 1015.8
20260508133127 81 329 1.0 7.0 0.00 0.00 0.00 78 1015.6
20260508132625 81 294 3.0 6.0 0.00 0.00 0.00 78 1015.4
20260508132121 81 297 3.0 6.0 0.00 0.00 0.00 79 1015.6
20260508131617 80 333 1.0 4.0 0.00 0.00 0.00 81 1015.3
20260508131114 80 331 0.0 4.0 0.00 0.00 0.00 81 1015.3
20260508130611 80 318 2.0 4.0 0.00 0.00 0.00 82 1015.4
20260508130108 80 314 2.0 6.0 0.00 0.00 0.00 81 1015.5
20260508125607 80 305 1.0 4.0 0.00 0.00 0.00 81 1015.5
20260508125106 80 334 1.0 3.0 0.00 0.00 0.00 82 1015.5
20260508124604 80 310 1.0 2.0 0.00 0.00 0.00 82 1015.3
20260508124100 79 305 3.0 4.0 0.00 0.00 0.00 82 1015.5
20260508123559 79 318 2.0 2.0 0.00 0.00 0.00 84 1015.4
20260508123055 79 355 1.0 4.0 0.00 0.00 0.00 84 1015.1
20260508122552 79 331 1.0 6.0 0.00 0.00 0.00 84 1015.3
20260508122049 79 340 2.0 2.0 0.00 0.00 0.00 85 1015.2
20260508121548 78 236 2.0 3.0 0.00 0.00 0.00 86 1015.0
20260508121045 77 339 1.0 2.0 0.00 0.00 0.00 88 1015.4
20260508120542 77 335 1.0 2.0 0.00 0.00 0.00 90 1015.2
20260508120041 76 338 1.0 1.0 0.00 0.00 0.00 92 1014.9
20260508115537 75 306 1.0 2.0 0.00 0.00 0.00 93 1015.0
20260508115034 75 340 0.0 1.0 0.00 0.00 0.00 94 1015.2
20260508114531 74 354 1.0 2.0 0.00 0.00 0.00 95 1015.0
20260508114027 74 342 0.0 0.0 0.00 0.00 0.00 95 1014.8
20260508113525 73 341 0.0 2.0 0.00 0.00 0.00 95 1014.7
20260508113023 73 345 0.0 0.0 0.00 0.00 0.00 95 1014.5
20260508112519 73 352 0.0 0.0 0.00 0.00 0.00 95 1014.5
20260508112015 72 342 0.0 0.0 0.00 0.00 0.00 95 1014.7
20260508111513 72 347 0.0 0.0 0.00 0.00 0.00 95 1014.4
20260508111010 72 347 0.0 0.0 0.00 0.00 0.00 95 1014.6
20260508110508 72 347 0.0 0.0 0.00 0.00 0.00 95 1014.6
20260508110003 72 347 0.0 0.0 0.00 0.00 0.00 94 1014.4
20260508105458 72 347 0.0 0.0 0.00 0.00 0.00 94 1014.1
20260508104956 72 347 0.0 0.0 0.00 0.00 0.00 94 1014.1
20260508104453 72 347 0.0 0.0 0.00 0.00 0.00 94 1014.2
20260508103950 71 347 0.0 0.0 0.00 0.00 0.00 94 1014.0
20260508103447 71 347 0.0 0.0 0.00 0.00 0.00 94 1013.9
20260508102943 71 343 0.0 0.0 0.00 0.00 0.00 94 1013.7
20260508102442 71 342 0.0 0.0 0.00 0.00 0.00 94 1013.6
20260508101939 72 345 0.0 0.0 0.00 0.00 0.00 94 1013.6
20260508101436 72 345 0.0 0.0 0.00 0.00 0.00 94 1013.4
20260508100933 72 342 0.0 0.0 0.00 0.00 0.00 93 1013.4
20260508100432 71 343 0.0 0.0 0.00 0.00 0.00 93 1013.1
20260508095928 72 343 0.0 0.0 0.00 0.00 0.00 93 1013.4
20260508095426 72 343 0.0 0.0 0.00 0.00 0.00 93 1013.4
20260508094922 72 343 0.0 0.0 0.00 0.00 0.00 93 1013.2
20260508094419 71 343 0.0 0.0 0.00 0.00 0.00 92 1013.3
20260508093916 72 343 0.0 0.0 0.00 0.00 0.00 92 1013.1
20260508093414 72 343 0.0 0.0 0.00 0.00 0.00 92 1013.1
20260508092911 72 343 0.0 0.0 0.00 0.00 0.00 92 1013.2
20260508092409 72 343 0.0 0.0 0.00 0.00 0.00 92 1013.2
20260508091907 72 343 0.0 0.0 0.00 0.00 0.00 92 1013.1
20260508091403 73 343 0.0 0.0 0.00 0.00 0.00 92 1013.1
20260508090901 73 343 0.0 0.0 0.00 0.00 0.00 92 1013.4
20260508090359 73 347 0.0 0.0 0.00 0.00 0.00 91 1013.0
20260508085854 73 346 0.0 0.0 0.00 0.00 0.00 91 1013.4
20260508085351 73 332 0.0 1.0 0.00 0.00 0.00 91 1013.4
20260508084848 73 340 0.0 1.0 0.00 0.00 0.00 91 1013.3
20260508084345 73 344 0.0 0.0 0.00 0.00 0.00 91 1013.3
20260508083843 73 344 0.0 1.0 0.00 0.00 0.00 91 1013.2
20260508083340 73 341 0.0 0.0 0.00 0.00 0.00 91 1013.7
20260508082839 73 341 0.0 1.0 0.00 0.00 0.00 90 1013.2
20260508082337 73 343 0.0 0.0 0.00 0.00 0.00 90 1013.3
20260508081834 73 344 0.0 0.0 0.00 0.00 0.00 90 1013.6
20260508081331 73 339 0.0 1.0 0.00 0.00 0.00 90 1013.2
20260508080828 73 343 0.0 0.0 0.00 0.00 0.00 90 1013.4
20260508080326 73 332 0.0 0.0 0.00 0.00 0.00 90 1013.5
20260508075822 73 341 0.0 0.0 0.00 0.00 0.00 90 1013.3
20260508075319 73 336 0.0 3.0 0.00 0.00 0.00 89 1013.3
20260508074817 73 339 0.0 0.0 0.00 0.00 0.00 89 1013.5
20260508074314 74 341 0.0 1.0 0.00 0.00 0.00 89 1013.4
20260508073811 74 4 1.0 2.0 0.00 0.00 0.00 89 1013.3
20260508073309 74 309 3.0 3.0 0.00 0.00 0.00 88 1013.4
20260508072805 74 340 0.0 2.0 0.00 0.00 0.00 88 1013.3
20260508072306 74 338 0.0 3.0 0.00 0.00 0.00 88 1013.3
20260508071759 74 351 0.0 0.0 0.00 0.00 0.00 88 1013.4
20260508071258 74 330 0.0 2.0 0.00 0.00 0.00 87 1013.3
20260508070754 74 315 1.0 4.0 0.00 0.00 0.00 87 1013.3
20260508070253 74 312 1.0 2.0 0.00 0.00 0.00 87 1013.4
20260508065749 74 2 0.0 1.0 0.00 0.00 0.00 87 1013.2
20260508065248 74 346 0.0 3.0 0.00 0.00 0.00 86 1013.4
20260508064746 74 339 0.0 2.0 0.00 0.00 0.00 86 1013.5
20260508064244 74 331 1.0 3.0 0.00 0.00 0.00 86 1013.4
20260508063740 75 327 2.0 3.0 0.00 0.00 0.00 86 1013.5
20260508063239 75 348 0.0 1.0 0.00 0.00 0.00 85 1013.7
20260508062735 75 332 2.0 2.0 0.00 0.00 0.00 85 1013.6
20260508062233 75 281 1.0 6.0 0.00 0.00 0.00 84 1013.5
20260508061730 75 345 2.0 2.0 0.00 0.00 0.00 84 1013.6
20260508061227 75 334 0.0 2.0 0.00 0.00 0.00 84 1013.6
20260508060723 75 319 1.0 1.0 0.00 0.00 0.00 83 1013.3
20260508060221 75 335 1.0 2.0 0.00 0.00 0.00 83 1013.7
20260508055716 75 342 0.0 1.0 0.00 0.00 0.00 82 1013.6
20260508055213 75 332 1.0 3.0 0.00 0.00 0.00 82 1013.7
20260508054710 75 336 0.0 2.0 0.00 0.00 0.00 81 1013.5
20260508054208 75 350 0.0 3.0 0.00 0.00 0.00 81 1013.8
20260508053705 75 343 0.0 1.0 0.00 0.00 0.00 80 1013.6
20260508053202 75 343 0.0 0.0 0.00 0.00 0.00 80 1014.1
20260508052659 75 338 0.0 1.0 0.00 0.00 0.00 79 1013.8
20260508052156 75 341 0.0 2.0 0.00 0.00 0.00 79 1014.1
20260508051652 75 344 0.0 2.0 0.00 0.00 0.00 78 1013.9
20260508051148 76 342 0.0 2.0 0.00 0.00 0.00 78 1014.1
20260508050644 76 315 2.0 2.0 0.00 0.00 0.00 78 1014.2
20260508050142 76 338 1.0 2.0 0.00 0.00 0.00 77 1013.9
20260508045637 76 329 1.0 2.0 0.00 0.00 0.00 76 1014.2
20260508045136 76 333 1.0 2.0 0.00 0.00 0.00 76 1014.0
20260508044632 76 322 2.0 6.0 0.00 0.00 0.00 76 1014.0
20260508044129 76 339 1.0 2.0 0.00 0.00 0.00 75 1013.9
20260508043625 76 323 2.0 4.0 0.00 0.00 0.00 75 1014.3
20260508043123 77 340 1.0 2.0 0.00 0.00 0.00 75 1014.2
20260508042619 77 313 2.0 4.0 0.00 0.00 0.00 75 1014.1
20260508042117 77 326 2.0 2.0 0.00 0.00 0.00 74 1013.9
20260508041613 77 317 2.0 3.0 0.00 0.00 0.00 74 1014.2
20260508041110 77 345 0.0 1.0 0.00 0.00 0.00 74 1014.0
20260508040606 77 327 2.0 3.0 0.00 0.00 0.00 73 1014.1
20260508040104 77 296 4.0 4.0 0.00 0.00 0.00 73 1014.0
20260508035601 77 315 2.0 4.0 0.00 0.00 0.00 73 1014.2
20260508035058 77 307 1.0 2.0 0.00 0.00 0.00 73 1014.1
20260508034554 78 345 2.0 7.0 0.00 0.00 0.00 72 1013.9
20260508034052 78 306 2.0 4.0 0.00 0.00 0.00 72 1014.1
20260508033549 78 301 1.0 2.0 0.00 0.00 0.00 71 1014.1
20260508033048 78 309 3.0 7.0 0.00 0.00 0.00 71 1013.9
20260508032544 78 326 1.0 4.0 0.00 0.00 0.00 71 1013.8
20260508032042 78 343 2.0 4.0 0.00 0.00 0.00 70 1013.9
20260508031538 79 288 1.0 4.0 0.00 0.00 0.00 70 1013.6
20260508031034 79 304 3.0 4.0 0.00 0.00 0.00 69 1014.0
20260508030531 79 293 4.0 6.0 0.00 0.00 0.00 68 1013.9
20260508030029 79 313 2.0 6.0 0.00 0.00 0.00 67 1013.9
20260508025524 79 330 3.0 4.0 0.00 0.00 0.00 68 1013.7
20260508025022 79 286 2.0 4.0 0.00 0.00 0.00 67 1013.7
20260508024518 80 288 3.0 3.0 0.00 0.00 0.00 67 1013.9
20260508024015 80 296 1.0 3.0 0.00 0.00 0.00 66 1013.6
20260508023511 80 280 3.0 4.0 0.00 0.00 0.00 66 1013.6
20260508023009 80 293 1.0 2.0 0.00 0.00 0.00 65 1013.5
20260508022505 80 269 4.0 4.0 0.00 0.00 0.00 64 1013.6
20260508022001 81 279 5.0 8.0 0.00 0.00 0.00 64 1013.5
20260508021458 81 339 3.0 6.0 0.00 0.00 0.00 63 1013.3
20260508020954 81 327 1.0 3.0 0.00 0.00 0.00 62 1013.3
20260508020452 81 309 1.0 2.0 0.00 0.00 0.00 61 1013.3
20260508015948 82 319 1.0 2.0 0.00 0.00 0.00 60 1013.4
20260508015446 82 308 3.0 4.0 0.00 0.00 0.00 59 1013.2
20260508014943 82 336 1.0 6.0 0.00 0.00 0.00 58 1013.2
20260508014440 82 292 1.0 3.0 0.00 0.00 0.00 57 1013.3
20260508013935 82 301 4.0 6.0 0.00 0.00 0.00 56 1013.1
20260508013432 82 318 1.0 8.0 0.00 0.00 0.00 55 1013.3
20260508012929 83 317 1.0 4.0 0.00 0.00 0.00 53 1013.3
20260508012426 83 325 2.0 2.0 0.00 0.00 0.00 52 1013.1
20260508011923 83 325 2.0 4.0 0.00 0.00 0.00 51 1012.9
20260508011421 83 308 4.0 7.0 0.00 0.00 0.00 50 1012.8
20260508010918 83 322 1.0 4.0 0.00 0.00 0.00 49 1012.9
20260508010415 84 304 4.0 8.0 0.00 0.00 0.00 47 1012.9
20260508005912 84 325 0.0 2.0 0.00 0.00 0.00 46 1013.0
20260508005409 84 335 2.0 3.0 0.00 0.00 0.00 45 1012.7
20260508004906 84 336 2.0 4.0 0.00 0.00 0.00 44 1012.8
20260508004402 84 276 3.0 6.0 0.00 0.00 0.00 42 1012.8
20260508003859 85 5 1.0 4.0 0.00 0.00 0.00 41 1012.7
20260508003355 85 333 1.0 3.0 0.00 0.00 0.00 40 1012.9
20260508002853 85 308 2.0 2.0 0.00 0.00 0.00 39 1012.9